Location: Newark
(48.1500°N, 13.1167°E)
Time: 08:33:55
(UTC+00:00)

KAITUO 1B - Pass Details

Date: 29 November 2021
Orbit: 486 x 507 km, 97.4° (Epoch: 18 January)

Event Time Altitude Azimuth Distance (km) Brightness Sun altitude
Rises 04:53:09 0° 25° (NNE) 2,636 ? -16.3°
Reaches altitude 10° 04:55:37 10° 41° (NE) 1,742 ? -15.9°
Maximum altitude 04:58:35 22° 93° (E) 1,153 ? -15.4°
Drops below altitude 10° 05:01:32 10° 146° (SE) 1,723 ? -14.9°
Sets 05:03:57 0° 162° (SSE) 2,599 ? -14.5°
